| time (UTC) | temp F | wind direction | speed MPH | gust MPH | rain 1hr in | rain 24hr in | rain mn in | humidity % | barometer mb |
| 20260502164008 | 62 | 109 | 12.0 | 0.0 | 0.00 | 0.00 | 0.00 | 23 | 1014.9 |
| 20260502163520 | 62 | 134 | 12.0 | 0.0 | 0.00 | 0.00 | 0.00 | 23 | 1015.0 |
| 20260502163040 | 62 | 128 | 12.0 | 0.0 | 0.00 | 0.00 | 0.00 | 24 | 1015.0 |
| 20260502162558 | 62 | 129 | 12.0 | 0.0 | 0.00 | 0.00 | 0.00 | 25 | 1014.9 |
| 20260502162012 | 61 | 157 | 14.0 | 0.0 | 0.00 | 0.00 | 0.00 | 24 | 1014.9 |
| 20260502161528 | 60 | 125 | 14.0 | 0.0 | 0.00 | 0.00 | 0.00 | 23 | 1015.0 |
| 20260502161044 | 60 | 157 | 14.0 | 0.0 | 0.00 | 0.00 | 0.00 | 24 | 1015.1 |
| 20260502160604 | 61 | 125 | 13.0 | 0.0 | 0.00 | 0.00 | 0.00 | 23 | 1015.2 |
| 20260502152024 | 54 | 93 | 2.0 | 0.0 | 0.00 | 0.00 | 0.00 | 42 | 1015.7 |
| 20260502151541 | 53 | 93 | 3.0 | 0.0 | 0.00 | 0.00 | 0.00 | 42 | 1015.7 |
| 20260502151058 | 52 | 93 | 5.0 | 0.0 | 0.00 | 0.00 | 0.00 | 44 | 1015.7 |
| 20260502150512 | 52 | 98 | 10.0 | 0.0 | 0.00 | 0.00 | 0.00 | 44 | 1015.8 |
| 20260502130543 | 32 | 165 | 2.0 | 0.0 | 0.00 | 0.00 | 0.00 | 70 | 1016.5 |
| 20260502130110 | 31 | 165 | 1.0 | 0.0 | 0.00 | 0.00 | 0.00 | 70 | 1016.5 |
| 20260502123541 | 32 | 165 | 3.0 | 0.0 | 0.00 | 0.00 | 0.00 | 69 | 1016.4 |
| 20260502123000 | 31 | 155 | 2.0 | 0.0 | 0.00 | 0.00 | 0.00 | 70 | 1016.5 |
| 20260502122521 | 31 | 207 | 1.0 | 0.0 | 0.00 | 0.00 | 0.00 | 70 | 1016.5 |
| 20260502122039 | 31 | 207 | 2.0 | 0.0 | 0.00 | 0.00 | 0.00 | 69 | 1016.4 |
| 20260502121602 | 31 | 207 | 2.0 | 0.0 | 0.00 | 0.00 | 0.00 | 67 | 1016.5 |
| 20260502121009 | 33 | 207 | 2.0 | 0.0 | 0.00 | 0.00 | 0.00 | 64 | 1016.4 |
| 20260502120529 | 33 | 207 | 3.0 | 0.0 | 0.00 | 0.00 | 0.00 | 63 | 1016.3 |
| 20260502120105 | 34 | 207 | 4.0 | 0.0 | 0.00 | 0.00 | 0.00 | 63 | 1016.4 |
| 20260502115503 | 34 | 209 | 4.0 | 0.0 | 0.00 | 0.00 | 0.00 | 62 | 1016.3 |
| 20260502115022 | 34 | 192 | 5.0 | 0.0 | 0.00 | 0.00 | 0.00 | 62 | 1016.3 |
| 20260502114553 | 34 | 192 | 5.0 | 0.0 | 0.00 | 0.00 | 0.00 | 63 | 1016.3 |
| 20260502114105 | 34 | 223 | 3.0 | 0.0 | 0.00 | 0.00 | 0.00 | 63 | 1016.3 |
| 20260502113516 | 34 | 192 | 1.0 | 0.0 | 0.00 | 0.00 | 0.00 | 63 | 1016.5 |
| 20260502113046 | 34 | 192 | 1.0 | 0.0 | 0.00 | 0.00 | 0.00 | 62 | 1016.5 |
| 20260502112601 | 34 | 192 | 1.0 | 0.0 | 0.00 | 0.00 | 0.00 | 62 | 1016.4 |
| 20260502112019 | 34 | 192 | 1.0 | 0.0 | 0.00 | 0.00 | 0.00 | 62 | 1016.5 |
| 20260502111544 | 34 | 192 | 1.0 | 0.0 | 0.00 | 0.00 | 0.00 | 63 | 1016.4 |
| 20260502111102 | 34 | 192 | 2.0 | 0.0 | 0.00 | 0.00 | 0.00 | 62 | 1016.7 |
| 20260502110516 | 35 | 192 | 5.0 | 0.0 | 0.00 | 0.00 | 0.00 | 62 | 1016.5 |
| 20260502110042 | 35 | 192 | 6.0 | 0.0 | 0.00 | 0.00 | 0.00 | 62 | 1016.4 |
| 20260502105559 | 35 | 207 | 6.0 | 0.0 | 0.00 | 0.00 | 0.00 | 62 | 1016.6 |
| 20260502105010 | 35 | 189 | 4.0 | 0.0 | 0.00 | 0.00 | 0.00 | 62 | 1016.6 |
| 20260502104529 | 35 | 196 | 3.0 | 0.0 | 0.00 | 0.00 | 0.00 | 61 | 1016.5 |
| 20260502104051 | 35 | 209 | 3.0 | 0.0 | 0.00 | 0.00 | 0.00 | 62 | 1016.6 |
| 20260502103502 | 36 | 98 | 5.0 | 0.0 | 0.00 | 0.00 | 0.00 | 59 | 1016.6 |
| 20260502103039 | 37 | 204 | 7.0 | 0.0 | 0.00 | 0.00 | 0.00 | 57 | 1016.6 |
| 20260502102536 | 38 | 204 | 7.0 | 0.0 | 0.00 | 0.00 | 0.00 | 54 | 1016.7 |
| 20260502102103 | 38 | 188 | 7.0 | 0.0 | 0.00 | 0.00 | 0.00 | 54 | 1016.6 |
| 20260502101517 | 38 | 166 | 8.0 | 0.0 | 0.00 | 0.00 | 0.00 | 55 | 1016.6 |
| 20260502101036 | 38 | 119 | 10.0 | 0.0 | 0.00 | 0.00 | 0.00 | 56 | 1016.4 |
| 20260502100600 | 38 | 186 | 11.0 | 0.0 | 0.00 | 0.00 | 0.00 | 55 | 1016.3 |
| 20260502091532 | 38 | 180 | 13.0 | 0.0 | 0.00 | 0.00 | 0.00 | 56 | 1016.2 |
| 20260502091049 | 39 | 188 | 13.0 | 0.0 | 0.00 | 0.00 | 0.00 | 55 | 1016.1 |
| 20260502090512 | 39 | 193 | 13.0 | 0.0 | 0.00 | 0.00 | 0.00 | 54 | 1016.2 |
| 20260502071535 | 41 | 234 | 14.0 | 0.0 | 0.00 | 0.00 | 0.00 | 53 | 1017.0 |
| 20260502071048 | 41 | 211 | 14.0 | 0.0 | 0.00 | 0.00 | 0.00 | 54 | 1016.9 |
| 20260502070605 | 40 | 206 | 14.0 | 0.0 | 0.00 | 0.00 | 0.00 | 55 | 1017.0 |
| 20260502070018 | 40 | 208 | 14.0 | 0.0 | 0.00 | 0.00 | 0.00 | 56 | 1016.9 |
| 20260502065534 | 40 | 212 | 12.0 | 0.0 | 0.00 | 0.00 | 0.00 | 55 | 1017.0 |
| 20260502065050 | 41 | 202 | 12.0 | 0.0 | 0.00 | 0.00 | 0.00 | 54 | 1016.9 |
| 20260502064502 | 41 | 215 | 12.0 | 0.0 | 0.00 | 0.00 | 0.00 | 53 | 1016.9 |
| 20260502064020 | 42 | 210 | 11.0 | 0.0 | 0.00 | 0.00 | 0.00 | 53 | 1017.0 |
| 20260502063535 | 41 | 209 | 12.0 | 0.0 | 0.00 | 0.00 | 0.00 | 54 | 1016.9 |
| 20260502063057 | 42 | 199 | 12.0 | 0.0 | 0.00 | 0.00 | 0.00 | 53 | 1016.9 |
| 20260502062511 | 42 | 217 | 12.0 | 0.0 | 0.00 | 0.00 | 0.00 | 52 | 1017.0 |
| 20260502062033 | 43 | 200 | 13.0 | 0.0 | 0.00 | 0.00 | 0.00 | 50 | 1016.9 |
| 20260502061547 | 43 | 209 | 13.0 | 0.0 | 0.00 | 0.00 | 0.00 | 50 | 1016.9 |
| 20260502061005 | 43 | 215 | 13.0 | 0.0 | 0.00 | 0.00 | 0.00 | 52 | 1017.0 |
| 20260502060521 | 41 | 213 | 12.0 | 0.0 | 0.00 | 0.00 | 0.00 | 54 | 1017.0 |
| 20260502060038 | 41 | 213 | 13.0 | 0.0 | 0.00 | 0.00 | 0.00 | 54 | 1017.0 |
| 20260502055557 | 41 | 217 | 13.0 | 0.0 | 0.00 | 0.00 | 0.00 | 54 | 1017.0 |
| 20260502055011 | 42 | 208 | 14.0 | 0.0 | 0.00 | 0.00 | 0.00 | 53 | 1016.9 |
| 20260502054549 | 42 | 207 | 13.0 | 0.0 | 0.00 | 0.00 | 0.00 | 52 | 1017.0 |
| 20260502054048 | 42 | 208 | 13.0 | 0.0 | 0.00 | 0.00 | 0.00 | 54 | 1017.1 |
| 20260502053503 | 42 | 206 | 12.0 | 0.0 | 0.00 | 0.00 | 0.00 | 53 | 1017.0 |
| 20260502053025 | 42 | 200 | 12.0 | 0.0 | 0.00 | 0.00 | 0.00 | 52 | 1017.1 |
| 20260502052542 | 43 | 209 | 11.0 | 0.0 | 0.00 | 0.00 | 0.00 | 53 | 1017.0 |
| 20260502052100 | 43 | 196 | 10.0 | 0.0 | 0.00 | 0.00 | 0.00 | 52 | 1016.9 |
| 20260502051521 | 43 | 211 | 8.0 | 0.0 | 0.00 | 0.00 | 0.00 | 51 | 1016.9 |
| 20260502051039 | 44 | 203 | 7.0 | 0.0 | 0.00 | 0.00 | 0.00 | 50 | 1016.9 |
| 20260502050501 | 43 | 185 | 7.0 | 0.0 | 0.00 | 0.00 | 0.00 | 51 | 1016.9 |
| 20260502050024 | 43 | 184 | 7.0 | 0.0 | 0.00 | 0.00 | 0.00 | 51 | 1017.0 |
| 20260502045543 | 43 | 171 | 7.0 | 0.0 | 0.00 | 0.00 | 0.00 | 52 | 1017.0 |
| 20260502045057 | 43 | 181 | 7.0 | 0.0 | 0.00 | 0.00 | 0.00 | 52 | 1017.2 |
| 20260502044513 | 43 | 198 | 8.0 | 0.0 | 0.00 | 0.00 | 0.00 | 53 | 1017.2 |
| 20260502044031 | 43 | 209 | 7.0 | 0.0 | 0.00 | 0.00 | 0.00 | 53 | 1017.1 |
| 20260502043556 | 42 | 209 | 6.0 | 0.0 | 0.00 | 0.00 | 0.00 | 55 | 1017.2 |
| 20260502043010 | 41 | 225 | 4.0 | 0.0 | 0.00 | 0.00 | 0.00 | 58 | 1017.1 |
| 20260502042526 | 41 | 194 | 4.0 | 0.0 | 0.00 | 0.00 | 0.00 | 58 | 1017.1 |
| 20260502042045 | 41 | 195 | 5.0 | 0.0 | 0.00 | 0.00 | 0.00 | 58 | 1017.0 |
| 20260502041601 | 42 | 198 | 7.0 | 0.0 | 0.00 | 0.00 | 0.00 | 58 | 1017.0 |
| 20260502041014 | 42 | 198 | 7.0 | 0.0 | 0.00 | 0.00 | 0.00 | 58 | 1016.9 |
| 20260502040530 | 42 | 209 | 6.0 | 0.0 | 0.00 | 0.00 | 0.00 | 58 | 1016.8 |
| 20260502040050 | 42 | 208 | 5.0 | 0.0 | 0.00 | 0.00 | 0.00 | 59 | 1016.7 |
| 20260502035605 | 42 | 217 | 4.0 | 0.0 | 0.00 | 0.00 | 0.00 | 59 | 1016.8 |
| 20260502035019 | 42 | 132 | 3.0 | 0.0 | 0.00 | 0.00 | 0.00 | 61 | 1016.8 |
| 20260502034533 | 42 | 197 | 5.0 | 0.0 | 0.00 | 0.00 | 0.00 | 60 | 1016.8 |
| 20260502034043 | 43 | 196 | 7.0 | 0.0 | 0.00 | 0.00 | 0.00 | 58 | 1016.6 |
| 20260502033601 | 43 | 187 | 7.0 | 0.0 | 0.00 | 0.00 | 0.00 | 58 | 1016.5 |
| 20260502033010 | 43 | 186 | 6.0 | 0.0 | 0.00 | 0.00 | 0.00 | 57 | 1016.5 |
| 20260502032522 | 43 | 192 | 6.0 | 0.0 | 0.00 | 0.00 | 0.00 | 56 | 1016.5 |
| 20260502032038 | 44 | 182 | 6.0 | 0.0 | 0.00 | 0.00 | 0.00 | 54 | 1016.5 |
| 20260502031549 | 45 | 192 | 6.0 | 0.0 | 0.00 | 0.00 | 0.00 | 50 | 1016.4 |
| 20260502031101 | 47 | 210 | 6.0 | 0.0 | 0.00 | 0.00 | 0.00 | 46 | 1016.4 |
| 20260502030511 | 49 | 215 | 5.0 | 0.0 | 0.00 | 0.00 | 0.00 | 43 | 1016.2 |
| 20260502030035 | 48 | 219 | 5.0 | 0.0 | 0.00 | 0.00 | 0.00 | 42 | 1016.1 |
| 20260502025547 | 46 | 215 | 5.0 | 0.0 | 0.00 | 0.00 | 0.00 | 46 | 1016.0 |
| 20260502025102 | 47 | 225 | 5.0 | 0.0 | 0.00 | 0.00 | 0.00 | 48 | 1016.0 |
| 20260502024509 | 49 | 355 | 4.0 | 0.0 | 0.00 | 0.00 | 0.00 | 44 | 1016.0 |
| 20260502024021 | 51 | 355 | 3.0 | 0.0 | 0.00 | 0.00 | 0.00 | 42 | 1015.8 |
| 20260502023532 | 53 | 355 | 2.0 | 0.0 | 0.00 | 0.00 | 0.00 | 39 | 1016.0 |
| 20260502023056 | 55 | 355 | 3.0 | 0.0 | 0.00 | 0.00 | 0.00 | 39 | 1015.9 |
| 20260502022602 | 56 | 348 | 2.0 | 0.0 | 0.00 | 0.00 | 0.00 | 32 | 1015.9 |
| 20260502022020 | 57 | 360 | 2.0 | 0.0 | 0.00 | 0.00 | 0.00 | 33 | 1015.8 |
| 20260502021531 | 58 | 350 | 3.0 | 0.0 | 0.00 | 0.00 | 0.00 | 33 | 1015.7 |
| 20260502021044 | 59 | 5 | 3.0 | 0.0 | 0.00 | 0.00 | 0.00 | 31 | 1015.7 |
| 20260502020604 | 59 | 5 | 3.0 | 0.0 | 0.00 | 0.00 | 0.00 | 30 | 1015.8 |
| 20260502020012 | 60 | 5 | 2.0 | 0.0 | 0.00 | 0.00 | 0.00 | 30 | 1015.7 |
| 20260502015528 | 61 | 5 | 2.0 | 0.0 | 0.00 | 0.00 | 0.00 | 28 | 1015.8 |
| 20260502015043 | 61 | 5 | 3.0 | 0.0 | 0.00 | 0.00 | 0.00 | 27 | 1015.9 |
| 20260502014500 | 62 | 5 | 3.0 | 0.0 | 0.00 | 0.00 | 0.00 | 26 | 1016.1 |
| 20260502014017 | 62 | 5 | 3.0 | 0.0 | 0.00 | 0.00 | 0.00 | 23 | 1016.0 |
| 20260502013527 | 62 | 5 | 3.0 | 0.0 | 0.00 | 0.00 | 0.00 | 23 | 1016.0 |
| 20260502013048 | 62 | 13 | 3.0 | 0.0 | 0.00 | 0.00 | 0.00 | 21 | 1016.0 |
| 20260502012502 | 63 | 13 | 4.0 | 0.0 | 0.00 | 0.00 | 0.00 | 19 | 1016.1 |
| 20260502012015 | 63 | 13 | 4.0 | 0.0 | 0.00 | 0.00 | 0.00 | 19 | 1016.2 |
| 20260502011538 | 63 | 13 | 3.0 | 0.0 | 0.00 | 0.00 | 0.00 | 18 | 1016.1 |
| 20260502011059 | 63 | 17 | 3.0 | 0.0 | 0.00 | 0.00 | 0.00 | 16 | 1016.1 |
| 20260502010510 | 63 | 17 | 3.0 | 0.0 | 0.00 | 0.00 | 0.00 | 16 | 1016.1 |
| 20260502010026 | 63 | 17 | 4.0 | 0.0 | 0.00 | 0.00 | 0.00 | 15 | 1016.3 |
| 20260502005542 | 63 | 11 | 3.0 | 0.0 | 0.00 | 0.00 | 0.00 | 14 | 1016.2 |
| 20260502005059 | 63 | 11 | 3.0 | 0.0 | 0.00 | 0.00 | 0.00 | 14 | 1016.3 |
| 20260502004513 | 63 | 51 | 2.0 | 0.0 | 0.00 | 0.00 | 0.00 | 16 | 1016.3 |
| 20260502004031 | 63 | 51 | 2.0 | 0.0 | 0.00 | 0.00 | 0.00 | 14 | 1016.2 |
| 20260502003548 | 63 | 51 | 3.0 | 0.0 | 0.00 | 0.00 | 0.00 | 17 | 1016.2 |
| 20260502003106 | 63 | 51 | 4.0 | 0.0 | 0.00 | 0.00 | 0.00 | 16 | 1016.2 |
| 20260502002518 | 63 | 39 | 4.0 | 0.0 | 0.00 | 0.00 | 0.00 | 16 | 1016.3 |
| 20260502002032 | 63 | 39 | 4.0 | 0.0 | 0.00 | 0.00 | 0.00 | 16 | 1016.3 |
| 20260502001549 | 63 | 35 | 4.0 | 0.0 | 0.00 | 0.00 | 0.00 | 14 | 1016.4 |
| 20260502001001 | 63 | 22 | 4.0 | 0.0 | 0.00 | 0.00 | 0.00 | 14 | 1016.5 |
| 20260502000516 | 63 | 22 | 4.0 | 0.0 | 0.00 | 0.00 | 0.00 | 16 | 1016.5 |
| 20260502000035 | 63 | 36 | 4.0 | 0.0 | 0.00 | 0.00 | 0.00 | 15 | 1016.5 |
| 20260501235551 | 63 | 33 | 5.0 | 0.0 | 0.00 | 0.00 | 0.00 | 15 | 1016.6 |
| 20260501235107 | 63 | 38 | 5.0 | 0.0 | 0.00 | 0.00 | 0.00 | 17 | 1016.8 |
| 20260501234513 | 63 | 37 | 7.0 | 0.0 | 0.00 | 0.00 | 0.00 | 17 | 1016.8 |
| 20260501234030 | 63 | 33 | 7.0 | 0.0 | 0.00 | 0.00 | 0.00 | 16 | 1016.8 |
| 20260501233544 | 63 | 36 | 6.0 | 0.0 | 0.00 | 0.00 | 0.00 | 16 | 1017.0 |
| 20260501233103 | 64 | 342 | 4.0 | 0.0 | 0.00 | 0.00 | 0.00 | 16 | 1016.9 |
| 20260501232513 | 64 | 34 | 2.0 | 0.0 | 0.00 | 0.00 | 0.00 | 18 | 1016.9 |
| 20260501232028 | 64 | 34 | 2.0 | 0.0 | 0.00 | 0.00 | 0.00 | 17 | 1016.9 |
| 20260501231542 | 63 | 30 | 2.0 | 0.0 | 0.00 | 0.00 | 0.00 | 18 | 1017.0 |
| 20260501231059 | 63 | 59 | 2.0 | 0.0 | 0.00 | 0.00 | 0.00 | 18 | 1017.0 |
| 20260501230510 | 63 | 54 | 3.0 | 0.0 | 0.00 | 0.00 | 0.00 | 19 | 1017.1 |
| 20260501230028 | 63 | 97 | 4.0 | 0.0 | 0.00 | 0.00 | 0.00 | 20 | 1017.1 |
| 20260501225543 | 62 | 55 | 5.0 | 0.0 | 0.00 | 0.00 | 0.00 | 19 | 1017.1 |
| 20260501225058 | 62 | 26 | 6.0 | 0.0 | 0.00 | 0.00 | 0.00 | 19 | 1017.2 |
| 20260501224505 | 63 | 30 | 5.0 | 0.0 | 0.00 | 0.00 | 0.00 | 18 | 1017.4 |
| 20260501224024 | 63 | 309 | 4.0 | 0.0 | 0.00 | 0.00 | 0.00 | 19 | 1017.4 |
| 20260501223544 | 63 | 32 | 4.0 | 0.0 | 0.00 | 0.00 | 0.00 | 19 | 1017.5 |
| 20260501223011 | 63 | 126 | 4.0 | 0.0 | 0.00 | 0.00 | 0.00 | 18 | 1017.5 |
| 20260501222520 | 62 | 106 | 5.0 | 0.0 | 0.00 | 0.00 | 0.00 | 19 | 1017.5 |
| 20260501222037 | 62 | 67 | 5.0 | 0.0 | 0.00 | 0.00 | 0.00 | 18 | 1017.6 |
| 20260501221555 | 62 | 65 | 5.0 | 0.0 | 0.00 | 0.00 | 0.00 | 19 | 1017.7 |
| 20260501221014 | 62 | 48 | 5.0 | 0.0 | 0.00 | 0.00 | 0.00 | 20 | 1017.9 |
| 20260501220530 | 62 | 48 | 5.0 | 0.0 | 0.00 | 0.00 | 0.00 | 18 | 1017.8 |
| 20260501220049 | 63 | 53 | 4.0 | 0.0 | 0.00 | 0.00 | 0.00 | 20 | 1017.9 |
| 20260501215502 | 63 | 261 | 3.0 | 0.0 | 0.00 | 0.00 | 0.00 | 20 | 1018.0 |
| 20260501215025 | 62 | 315 | 4.0 | 0.0 | 0.00 | 0.00 | 0.00 | 21 | 1018.1 |
| 20260501214540 | 62 | 339 | 5.0 | 0.0 | 0.00 | 0.00 | 0.00 | 20 | 1018.2 |
| 20260501214057 | 61 | 350 | 5.0 | 0.0 | 0.00 | 0.00 | 0.00 | 21 | 1018.4 |
| 20260501213516 | 61 | 72 | 5.0 | 0.0 | 0.00 | 0.00 | 0.00 | 19 | 1018.5 |
| 20260501213030 | 61 | 322 | 6.0 | 0.0 | 0.00 | 0.00 | 0.00 | 18 | 1018.5 |
| 20260501212545 | 61 | 24 | 6.0 | 0.0 | 0.00 | 0.00 | 0.00 | 20 | 1018.4 |
| 20260501212102 | 61 | 5 | 7.0 | 0.0 | 0.00 | 0.00 | 0.00 | 21 | 1018.4 |
| 20260501211516 | 61 | 338 | 6.0 | 0.0 | 0.00 | 0.00 | 0.00 | 21 | 1018.5 |
| 20260501211029 | 61 | 11 | 4.0 | 0.0 | 0.00 | 0.00 | 0.00 | 23 | 1018.5 |
| 20260501210549 | 61 | 46 | 4.0 | 0.0 | 0.00 | 0.00 | 0.00 | 22 | 1018.7 |
| 20260501210105 | 61 | 36 | 4.0 | 0.0 | 0.00 | 0.00 | 0.00 | 22 | 1018.7 |
| 20260501205522 | 60 | 67 | 5.0 | 0.0 | 0.00 | 0.00 | 0.00 | 22 | 1018.8 |
| 20260501205038 | 60 | 35 | 6.0 | 0.0 | 0.00 | 0.00 | 0.00 | 23 | 1018.8 |
| 20260501204609 | 60 | 39 | 7.0 | 0.0 | 0.00 | 0.00 | 0.00 | 20 | 1018.8 |
| 20260501204006 | 60 | 19 | 6.0 | 0.0 | 0.00 | 0.00 | 0.00 | 22 | 1018.9 |
| 20260501203524 | 60 | 360 | 6.0 | 0.0 | 0.00 | 0.00 | 0.00 | 22 | 1018.9 |
| 20260501203054 | 60 | 300 | 5.0 | 0.0 | 0.00 | 0.00 | 0.00 | 21 | 1018.9 |
| 20260501202600 | 60 | 30 | 4.0 | 0.0 | 0.00 | 0.00 | 0.00 | 22 | 1019.0 |
| 20260501202014 | 60 | 5 | 3.0 | 0.0 | 0.00 | 0.00 | 0.00 | 21 | 1019.0 |
| 20260501201529 | 59 | 144 | 4.0 | 0.0 | 0.00 | 0.00 | 0.00 | 19 | 1019.0 |
| 20260501201047 | 59 | 50 | 4.0 | 0.0 | 0.00 | 0.00 | 0.00 | 20 | 1019.1 |
| 20260501200604 | 59 | 79 | 4.0 | 0.0 | 0.00 | 0.00 | 0.00 | 19 | 1019.2 |
| 20260501200015 | 59 | 98 | 5.0 | 0.0 | 0.00 | 0.00 | 0.00 | 21 | 1019.4 |
| 20260501195528 | 58 | 37 | 5.0 | 0.0 | 0.00 | 0.00 | 0.00 | 20 | 1019.3 |
| 20260501195045 | 59 | 43 | 4.0 | 0.0 | 0.00 | 0.00 | 0.00 | 20 | 1019.4 |
| 20260501194558 | 58 | 88 | 3.0 | 0.0 | 0.00 | 0.00 | 0.00 | 21 | 1019.5 |
| 20260501194015 | 58 | 343 | 5.0 | 0.0 | 0.00 | 0.00 | 0.00 | 19 | 1019.6 |
| 20260501193539 | 58 | 60 | 5.0 | 0.0 | 0.00 | 0.00 | 0.00 | 21 | 1019.7 |
| 20260501193053 | 58 | 40 | 4.0 | 0.0 | 0.00 | 0.00 | 0.00 | 20 | 1019.7 |
| 20260501192509 | 58 | 44 | 3.0 | 0.0 | 0.00 | 0.00 | 0.00 | 22 | 1019.7 |
| 20260501192028 | 58 | 259 | 4.0 | 0.0 | 0.00 | 0.00 | 0.00 | 20 | 1019.8 |
| 20260501191543 | 58 | 348 | 5.0 | 0.0 | 0.00 | 0.00 | 0.00 | 20 | 1019.8 |
| 20260501191103 | 57 | 11 | 4.0 | 0.0 | 0.00 | 0.00 | 0.00 | 23 | 1019.9 |
| 20260501190512 | 57 | 58 | 4.0 | 0.0 | 0.00 | 0.00 | 0.00 | 23 | 1019.9 |
| 20260501190030 | 57 | 24 | 4.0 | 0.0 | 0.00 | 0.00 | 0.00 | 23 | 1020.0 |
| 20260501185552 | 57 | 30 | 4.0 | 0.0 | 0.00 | 0.00 | 0.00 | 21 | 1020.0 |
| 20260501185008 | 57 | 42 | 4.0 | 0.0 | 0.00 | 0.00 | 0.00 | 21 | 1020.0 |
| 20260501184526 | 56 | 355 | 4.0 | 0.0 | 0.00 | 0.00 | 0.00 | 19 | 1020.1 |
| 20260501184044 | 56 | 79 | 5.0 | 0.0 | 0.00 | 0.00 | 0.00 | 19 | 1020.1 |
| 20260501183558 | 56 | 60 | 5.0 | 0.0 | 0.00 | 0.00 | 0.00 | 21 | 1020.1 |
| 20260501183010 | 56 | 53 | 3.0 | 0.0 | 0.00 | 0.00 | 0.00 | 21 | 1020.1 |
| 20260501182526 | 56 | 59 | 4.0 | 0.0 | 0.00 | 0.00 | 0.00 | 23 | 1020.2 |
| 20260501182044 | 56 | 74 | 4.0 | 0.0 | 0.00 | 0.00 | 0.00 | 21 | 1020.3 |
| 20260501181621 | 56 | 34 | 4.0 | 0.0 | 0.00 | 0.00 | 0.00 | 20 | 1020.4 |
| 20260501181014 | 56 | 49 | 3.0 | 0.0 | 0.00 | 0.00 | 0.00 | 20 | 1020.4 |
| 20260501180531 | 56 | 88 | 3.0 | 0.0 | 0.00 | 0.00 | 0.00 | 19 | 1020.4 |
| 20260501180056 | 56 | 87 | 2.0 | 0.0 | 0.00 | 0.00 | 0.00 | 20 | 1020.5 |
| 20260501175600 | 56 | 71 | 2.0 | 0.0 | 0.00 | 0.00 | 0.00 | 23 | 1020.6 |
| 20260501175014 | 55 | 25 | 3.0 | 0.0 | 0.00 | 0.00 | 0.00 | 19 | 1020.6 |
| 20260501174530 | 55 | 57 | 2.0 | 0.0 | 0.00 | 0.00 | 0.00 | 28 | 1020.8 |
| 20260501174045 | 54 | 45 | 2.0 | 0.0 | 0.00 | 0.00 | 0.00 | 25 | 1020.8 |
| 20260501173601 | 54 | 53 | 3.0 | 0.0 | 0.00 | 0.00 | 0.00 | 25 | 1020.9 |
| 20260501173017 | 54 | 73 | 4.0 | 0.0 | 0.00 | 0.00 | 0.00 | 26 | 1021.0 |
| 20260501172528 | 54 | 74 | 3.0 | 0.0 | 0.00 | 0.00 | 0.00 | 27 | 1021.1 |
| 20260501172043 | 54 | 64 | 3.0 | 0.0 | 0.00 | 0.00 | 0.00 | 28 | 1021.1 |
| 20260501171604 | 53 | 67 | 3.0 | 0.0 | 0.00 | 0.00 | 0.00 | 28 | 1021.1 |